User: anonymous   Login
Location: Unspecified
(0.0000°N, 0.0000°E)
Time: 19:01:30
(UTC+00:00)
Language:

OBJECT L - Orbit

View from above orbital plane
View from above orbital plane
View from above satellite
View from above satellite

Ground track
Ground track

The orbit is defined by the following mean orbital elements,

1 62387U          26145.01174125 +.00000000 +00000-0 +71173-3 0 00000
2 62387  44.9920  20.0515 0007616 176.9482 183.1458 15.50941763    07
Epoch (UTC): 25 May 2026 00:16:54
Eccentricity: 0.0007616
inclination: 44.9920°
perigee height: 409 km
apogee height: 419 km
right ascension of ascending node: 20.0515°
argument of perigee: 176.9482°
revolutions per day: 15.50941763
mean anomaly at epoch: 183.1458°

The dashed part of the orbit path shows where the satellite is in the earth's shadow,  

DLR